TimeEDT,TemperatureF,Dew PointF,Humidity,Sea Level PressureIn,VisibilityMPH,Wind Direction,Wind SpeedMPH,Gust SpeedMPH,PrecipitationIn,Events,Conditions,WindDirDegrees,DateUTC
12:52 AM,37.0,21.9,54,29.91,10.0,NW,9.2,-,N/A,,Clear,320,2013-04-06 04:52:00
1:52 AM,36.0,19.0,50,29.94,10.0,NW,11.5,-,N/A,,Mostly Cloudy,320,2013-04-06 05:52:00
2:52 AM,34.0,18.0,52,29.96,10.0,NW,10.4,-,N/A,,Clear,310,2013-04-06 06:52:00
3:52 AM,34.0,17.1,50,30.00,10.0,NNW,10.4,-,N/A,,Mostly Cloudy,330,2013-04-06 07:52:00
4:52 AM,33.1,19.0,56,30.03,10.0,NNW,8.1,-,N/A,,Overcast,330,2013-04-06 08:52:00
5:52 AM,32.0,14.0,48,30.09,10.0,NW,11.5,21.9,N/A,,Overcast,320,2013-04-06 09:52:00
6:52 AM,30.9,10.9,43,30.13,10.0,NNW,11.5,23.0,N/A,,Scattered Clouds,330,2013-04-06 10:52:00
7:52 AM,32.0,10.9,42,30.16,10.0,NW,9.2,17.3,N/A,,Partly Cloudy,320,2013-04-06 11:52:00
8:52 AM,32.0,5.0,32,30.20,9.0,NNW,17.3,35.7,N/A,,Clear,330,2013-04-06 12:52:00
9:52 AM,34.0,5.0,30,30.22,10.0,NNW,15.0,24.2,N/A,,Clear,330,2013-04-06 13:52:00
10:52 AM,36.0,1.9,24,30.24,10.0,NW,19.6,27.6,N/A,,Clear,320,2013-04-06 14:52:00
11:52 AM,37.9,1.0,21,30.24,10.0,NNW,19.6,26.5,N/A,,Clear,340,2013-04-06 15:52:00
12:52 PM,41.0,3.9,21,30.24,10.0,WNW,12.7,-,N/A,,Clear,300,2013-04-06 16:52:00
1:52 PM,43.0,3.9,20,30.24,10.0,WNW,11.5,20.7,N/A,,Clear,300,2013-04-06 17:52:00
2:52 PM,44.1,3.0,18,30.23,10.0,NNW,15.0,20.7,N/A,,Clear,340,2013-04-06 18:52:00
3:52 PM,45.0,3.0,18,30.22,10.0,WNW,18.4,21.9,N/A,,Clear,290,2013-04-06 19:52:00
4:52 PM,46.0,1.0,16,30.24,10.0,WNW,11.5,-,N/A,,Clear,290,2013-04-06 20:52:00
5:52 PM,45.0,-0.0,15,30.26,10.0,NNW,11.5,-,N/A,,Clear,330,2013-04-06 21:52:00
6:52 PM,44.1,1.9,17,30.28,10.0,NNW,6.9,-,N/A,,Clear,330,2013-04-06 22:52:00
7:52 PM,39.9,5.0,23,30.31,10.0,Calm,Calm,-,N/A,,Clear,0,2013-04-06 23:52:00
8:52 PM,36.0,9.0,33,30.32,10.0,NNW,3.5,-,N/A,,Clear,330,2013-04-07 00:52:00
9:52 PM,34.0,9.0,35,30.33,10.0,Calm,Calm,-,N/A,,Clear,0,2013-04-07 01:52:00
10:52 PM,30.0,14.0,51,30.34,10.0,Calm,Calm,-,N/A,,Clear,0,2013-04-07 02:52:00
11:52 PM,30.0,14.0,51,30.35,10.0,WNW,3.5,-,N/A,,Clear,300,2013-04-07 03:52:00